User: anonymous   Login
Location: Mentone
(34.5413°N, 85.5351°W)
Time: 21:09:10
(UTC-06:00)
Language:

A-11 Canister half - Orbit

View from above orbital plane
View from above orbital plane
View from above satellite
View from above satellite

Ground track
Ground track

The orbit data is extracted from the following two-line orbital elements,

1 00053U 60009E   15060.16093574 -.00000085  00000-0  00000+0 0  9993
2 00053 047.2752 106.6942 0097775 123.8260 237.1882 12.17161736432850
Epoch (UTC): 01 March 2015 03:51:44
Eccentricity: 0.0097775
inclination: 47.2752°
perigee height: 1527 km
apogee height: 1683 km
right ascension of ascending node: 106.6942°
argument of perigee: 123.8260°
revolutions per day: 12.17161736
mean anomaly at epoch: 237.1882°
orbit number at epoch: 43285

The dashed part of the orbit path shows where the satellite is in the earth's shadow,  

DLR